Home   Weather   Cloppenburg   Past weeks

Flag for Germany Past Weather in Cloppenburg, Lower Saxony, Germany — Yesterday and Last 2 Weeks

Now
48 °F

Light rain. Fog.


Feels Like: 42 °F
Forecast: 42 / 49 °F
Wind: 18 mph from West

Location: Diepholz Airport

Current Time: Feb 20, 2017 at 2:47:35 pm

Latest Report: Feb 20, 2017 at 1:49 pm


Visibility: 3 mi

Pressure: 29.86 "Hg

Humidity: 94%

Dew Point: 46 °F

Location of CloppenburgLocation

Past Weather in Cloppenburg — Graph

°F

Cloppenburg Temperature Yesterday

High & Low Weather Summary for the Past Weeks

 TemperatureHumidityPressure
High52 °F (Feb 16, 3:20 pm)100% (Feb 6, 7:12 am)30.54 "Hg (Feb 6, 7:12 am)
Low25 °F (Feb 9, 7:20 am)54% (Feb 15, 2:20 pm)29.86 "Hg (Feb 20, 1:20 pm)
Average36 °F84%30.26 "Hg
* Reported Feb 6 7:12 am — Feb 20 1:20 pm, Cloppenburg, Weather by CustomWeather, © 2017

Note: Actual official high and low records may vary slightly from our data, if they occured in-between our weather recording intervals... More about our weather records

Advertising

Cloppenburg Weather History for the Previous 24 Hours

Scroll right to see more
 ConditionsComfort  
Time TempWeatherWind HumidityBarometerVisibility
1:20 pm
Mon, Feb 20
48 °FPartly sunny.20 mph94%29.86 "Hg4 mi
1:01 pm48 °FLight rain. Fog.20 mph94%29.89 "Hg3 mi
12:38 pm46 °FDrizzle. Fog.17 mph100%29.89 "Hg2 mi
12:20 pm46 °FDrizzle. Fog.17 mph100%29.92 "Hg2 mi
11:46 am46 °FFog.15 mph100%29.92 "Hg2 mi
11:20 am46 °FDrizzle. Partly sunny.16 mph100%29.92 "Hg4 mi
11:12 am46 °FDrizzle. Fog.14 mph100%29.92 "Hg3 mi
10:55 am46 °FDrizzle. Fog.15 mph100%29.92 "Hg2 mi
10:31 am46 °FDrizzle. Fog.16 mph93%29.92 "Hg2 mi
10:03 am46 °FDrizzle. Partly sunny.15 mph93%29.95 "Hg4 mi
9:52 am46 °FPartly sunny.15 mph93%29.95 "Hg5 mi
9:20 am46 °FPartly sunny.17 mph93%29.95 "Hg4 mi
8:45 am46 °FDrizzle. Fog.16 mph93%29.95 "Hg3 mi
8:20 am45 °FDrizzle. Fog.16 mph93%29.95 "Hg3 mi
7:20 am45 °FDrizzle. Fog.13 mph93%29.98 "Hg2 mi
7:07 am45 °FDrizzle. Fog.13 mph93%29.98 "Hg3 mi
6:54 am45 °FDrizzle. Fog.10 mph93%29.98 "Hg3 mi
6:20 am45 °FPassing clouds.13 mph87%30.01 "Hg4 mi
Weather by CustomWeather, © 2017

See weather overviewHow to use our weather pages